Terminal Aerodrome Forecast
Issued by NWS Blacksburg, VA

Home | Current Version | Previous Version | Text Only | Print | Product List | Glossary On
Versions: 1 2 3 4 5 6 7 8 9 10 11 12 13 14 15 16 17 18 19 20 21 22 23 24 25 26 27 28 29 30 31 32 33 34 35
000
FTUS41 KRNK 140530
TAFDAN
TAF
KDAN 140530Z 1406/1506 21003KT P6SM SCT250
     FM141400 23008KT P6SM BKN120
     FM142100 24008KT P6SM VCTS BKN040CB
     FM150400 22005KT P6SM BKN250=

USA.gov is the U.S. government's official web portal to all federal, state and local government web resources and services.